This demonstration page uses our WeatherBlox Daily Observations layout. Learn more.

40.92945, -100.16068

Hourly Observations for May 28, 2020

Temp ( °F °C ) Dew Point ( °F °C ) Humidity (%) Winds ( mph kmh ) Pressure ( in mb ) Visibility ( mi km ) Precip ( " mm )
12:15 am 00:15 Clear 56 13.4 52 11.3 87 87 Calm 29.99 1016 10 16.0934 0 0
12:35 am 00:35 Clear 54 12.4 51 10.7 89 89 Calm 30.01 1016 10 16.0934 0 0
12:55 am 00:55 Clear 54 12.1 52 11 93 93 WNW 5 7 30.01 1016 10 16.0934 0 0
1:15 am 01:15 Clear 53 11.7 51 10.8 94 94 WNW 6 9 30.03 1017 10 16.0934 0 0
1:35 am 01:35 Clear 54 12 52 11.1 94 94 WNW 7 11 30.03 1017 10 16.0934 0 0
1:55 am 01:55 Clear 55 12.5 52 11.3 92 92 WNW 8 13 30.03 1017 10 16.0934 0 0
2:15 am 02:15 Clear 54 12.4 52 11.2 92 92 Calm 30.02 1017 10 16.0934 0 0
2:35 am 02:35 Clear 54 12 51 10.8 92 92 NW 6 9 30.02 1017 10 16.0934 0 0
2:55 am 02:55 Clear 52 11.1 50 10.2 94 94 WNW 5 7 30.03 1017 10 16.0934 0 0
3:15 am 03:15 Clear 53 11.7 51 10.8 94 94 WNW 7 11 30.05 1017 10 16.0934 0 0
3:35 am 03:35 Clear 53 11.5 51 10.5 94 94 NW 7 11 30.05 1018 10 16.0934 0 0
3:55 am 03:55 Clear 52 11 50 10.1 94 94 WNW 6 9 30.05 1018 10 16.0934 0 0
4:15 am 04:15 Clear 53 11.5 51 10.5 94 94 WNW 5 7 30.05 1018 10 16.0934 0 0
4:35 am 04:35 Partly Cloudy 54 12 52 11 94 94 WNW 5 7 30.05 1018 10 16.0934 0 0
4:55 am 04:55 Partly Cloudy 54 12.1 52 11.1 94 94 WNW 6 9 30.05 1018 10 16.0934 0 0
5:15 am 05:15 Clear 54 12 52 11 94 94 WNW 7 11 30.06 1018 10 16.0934 0 0
5:35 am 05:35 Partly Cloudy 53 11.8 52 11 95 95 NW 9 15 30.07 1018 10 16.0934 0 0
5:55 am 05:55 Mostly Cloudy 56 13.3 53 11.7 90 90 N 12 19 30.07 1018 10 16.0934 0 0
6:15 am 06:15 Partly Cloudy 58 14.6 55 12.7 88 88 N 16 26 30.06 1018 10 16.0934 0 0
6:35 am 06:35 Mostly Cloudy 58 14.7 55 12.8 88 88 N 14 22 30.07 1018 10 16.0934 0 0
6:55 am 06:55 Cloudy 59 15.2 55 12.7 85 85 N 14 22 30.06 1018 10 16.0934 0 0
7:15 am 07:15 Cloudy 60 15.5 55 12.6 83 83 N 13 20 30.07 1018 10 16.0934 0 0
7:35 am 07:35 Cloudy 61 15.9 55 12.6 81 81 N 15 24 30.08 1019 10 16.0934 0 0
7:55 am 07:55 Cloudy 61 16.1 55 12.8 81 81 N 14 22 30.08 1018 10 16.0934 0 0
8:15 am 08:15 Cloudy with Light Rain 62 16.5 56 13.4 82 82 NNE 15 24 30.07 1018 10 16.0934 0 0
8:35 am 08:35 Mostly Cloudy 64 17.6 56 13.5 77 77 N 16 26 30.06 1018 10 16.0934 0 0
8:55 am 08:55 Cloudy 65 18.1 56 13.4 74 74 N 13 20 30.06 1018 10 16.0934 0 0
9:15 am 09:15 Mostly Cloudy 65 18.4 56 13.4 73 73 NNE 17 28 30.06 1018 10 16.0934 0 0
9:35 am 09:35 Mostly Cloudy 66 18.8 55 13 69 69 NNE 16 26 30.05 1018 10 16.0934 0 0
9:55 am 09:55 Mostly Cloudy 67 19.7 56 13.6 68 68 N 16 26 30.05 1018 10 16.0934 0 0
10:15 am 10:15 Mostly Cloudy 68 20.1 57 14 68 68 N 16 26 30.05 1018 10 16.0934 0 0
10:35 am 10:35 Partly Cloudy 70 21.1 58 14.2 65 65 NNE 15 24 30.04 1017 10 16.0934 0 0
10:55 am 10:55 Sunny 71 21.6 58 14.2 63 63 N 18 30 30.04 1017 10 16.0934 0 0
11:15 am 11:15 Sunny 72 22.2 58 14.5 62 62 N 17 28 30.04 1017 10 16.0934 0 0
11:35 am 11:35 Partly Cloudy 72 22 57 14 61 61 NNE 16 26 30.04 1017 10 16.0934 0 0
11:55 am 11:55 Sunny 73 22.5 57 14 59 59 NNE 17 28 30.04 1017 10 16.0934 0 0
12:15 pm 12:15 Sunny 73 22.8 58 14.2 58 58 N 18 30 30.05 1018 10 16.0934 0 0
12:35 pm 12:35 Partly Cloudy 73 22.9 57 13.9 57 57 NNE 16 26 30.05 1018 10 16.0934 0 0
12:55 pm 12:55 Partly Cloudy 74 23.3 56 13.4 54 54 NNE 16 26 30.03 1017 10 16.0934 0 0
1:15 pm 13:15 Partly Cloudy 74 23.5 56 13.3 53 53 N 20 31 30.03 1017 10 16.0934 0 0
1:35 pm 13:35 Sunny 75 24 55 12.7 49 49 NNE 15 24 30.03 1017 10 16.0934 0 0
1:55 pm 13:55 Sunny 75 23.7 53 11.9 48 48 NNE 14 22 30.03 1017 10 16.0934 0 0
2:15 pm 14:15 Sunny 75 23.7 52 11.3 46 46 NE 16 26 30.03 1017 10 16.0934 0 0
2:35 pm 14:35 Sunny 75 24.1 53 11.8 46 46 N 12 19 30.03 1017 10 16.0934 0 0
2:55 pm 14:55 Sunny 76 24.2 52 11.2 44 44 N 17 28 30.03 1017 10 16.0934 0 0
3:15 pm 15:15 Sunny 76 24.5 53 11.8 45 45 N 18 30 30.02 1017 10 16.0934 0 0
3:35 pm 15:35 Partly Cloudy 76 24.4 55 12.6 48 48 NNE 14 22 30.02 1017 10 16.0934 0 0
3:55 pm 15:55 Partly Cloudy 76 24.4 53 11.7 45 45 N 16 26 30.02 1017 10 16.0934 0 0
4:15 pm 16:15 Mostly Cloudy 74 23.5 52 11.1 46 46 NNE 10 17 30.03 1017 10 16.0934 0 0
4:35 pm 16:35 Mostly Cloudy 74 23.5 52 11.1 46 46 NNE 10 17 30.03 1017 10 16.0934 0 0
4:55 pm 16:55 Partly Cloudy 75 23.8 52 10.9 44 44 NNE 10 17 30.03 1017 10 16.0934 0 0
5:15 pm 17:15 Partly Cloudy 75 24 52 11.1 44 44 N 9 15 30.03 1017 10 16.0934 0 0
5:35 pm 17:35 Partly Cloudy 75 23.9 53 11.7 46 46 NNE 8 13 30.03 1017 10 16.0934 0 0
5:55 pm 17:55 Partly Cloudy 75 24.1 52 11.2 44 44 N 14 22 30.03 1017 10 16.0934 0 0
6:15 pm 18:15 Sunny 75 24 52 10.9 44 44 N 14 22 30.04 1017 10 16.0934 0 0
6:35 pm 18:35 Sunny 74 23.5 51 10.3 43 43 N 15 24 30.04 1017 10 16.0934 0 0
6:55 pm 18:55 Sunny 74 23.5 51 10.5 44 44 N 13 20 30.04 1017 10 16.0934 0 0
7:15 pm 19:15 Sunny 73 22.9 50 10.2 45 45 NNE 13 20 30.06 1018 10 16.0934 0 0
7:35 pm 19:35 Sunny 71 21.9 49 9.4 45 45 NNE 15 24 30.08 1018 10 16.0934 0 0
7:55 pm 19:55 Partly Cloudy 69 20.7 49 9.7 49 49 NNE 9 15 30.09 1019 10 16.0934 0 0
8:15 pm 20:15 Partly Cloudy 69 20.7 49 9.3 48 48 NNE 13 20 30.09 1019 10 16.0934 0 0
8:35 pm 20:35 Sunny 67 19.5 48 8.8 50 50 NE 8 13 30.11 1019 10 16.0934 0 0
8:55 pm 20:55 Sunny 64 17.7 48 8.9 57 57 NE 8 13 30.12 1020 10 16.0934 0 0
9:15 pm 21:15 Clear 62 16.9 48 8.7 59 59 NNE 6 9 30.13 1020 10 16.0934 0 0
9:35 pm 21:35 Clear 60 15.7 49 9.3 66 66 NE 3 6 30.15 1021 10 16.0934 0 0
9:55 pm 21:55 Clear 58 14.6 49 9.6 72 72 ENE 6 9 30.16 1021 10 16.0934 0 0
10:15 pm 22:15 Clear 58 14.5 49 9.3 71 71 NNE 5 7 30.17 1022 10 16.0934 0 0
10:35 pm 22:35 Clear 57 13.7 48 9.1 74 74 NNE 5 7 30.19 1022 10 16.0934 0 0
10:55 pm 22:55 Clear 57 14 48 8.8 71 71 NNE 5 7 30.19 1022 10 16.0934 0 0
11:15 pm 23:15 Clear 57 13.7 48 8.9 73 73 Calm 30.2 1023 10 16.0934 0 0
11:35 pm 23:35 Clear 57 13.7 48 8.7 72 72 NNE 3 6 30.21 1023 10 16.0934 0 0
11:55 pm 23:55 Clear 56 13.4 47 8.5 72 72 Calm 30.21 1023 10 16.0934 0 0

Powered by AerisWeather